Regional Weather Roundup
Issued by NWS Boston, MA

Home | Current Version | Previous Version | Text Only | Print | Product List | Glossary On
Versions: 1 2 3 4 5 6 7 8 9 10 11 12 13 14 15 16 17 18 19 20 21 22 23 24 25 26 27
000
ASUS41 KBOX 020510
RWRBOX

REGIONAL WEATHER ROUNDUP
NATIONAL WEATHER SERVICE TAUNTON MA
100 AM EDT MON MAY 02 2016

NOTE:  "FAIR" INDICATES FEW OR NO CLOUDS BELOW 12,000 FEET WITH NO
SIGNIFICANT WEATHER AND/OR OBSTRUCTIONS TO VISIBILITY.  THE FOLLOWING
OBSERVATION LOCATIONS DO NOT REPORT PRESENT WEATHER...PROVINCETOWN...
SMITHFIELD...BLOCK ISLAND...KEENE...AND OXFORD.

MAZALL-020600-
EASTERN MASSACHUSETTS

CITY           SKY/WX    TMP DP  RH WIND       PRES   REMARKS
BOSTON         DRIZZLE   43  41  93 NE6       30.11F FOG
BEVERLY        CLOUDY    42  40  92 E3        30.11F FOG
LAWRENCE       CLOUDY    42  39  89 NE5       30.14F FOG
BEDFORD        CLOUDY    41  40  96 N3        30.10F FOG
BLUE HILL        N/A     40  40 100 E10       30.07F
NORWOOD        CLOUDY    43  41  93 CALM      30.10F FOG
MARSHFIELD     CLOUDY    46  46 100 E6        30.11F FOG
PLYMOUTH       CLOUDY    46  45  96 NE5       30.09F FOG
TAUNTON        CLOUDY    45  42  89 CALM      30.09F FOG
NEW BEDFORD    LGT RAIN  45  45 100 N3        30.08F FOG
$$

MAZALL-020600-
CAPE COD AND THE ISLANDS

CITY           SKY/WX    TMP DP  RH WIND       PRES   REMARKS
FALMOUTH       CLOUDY    46  46 100 E8        30.07F FOG
HYANNIS        CLOUDY    48  46  93 E7        30.06F
CHATHAM        LGT RAIN  46  46 100 SE8       30.09F
PROVINCETOWN   CLOUDY    46  45  96 E7        30.11F FOG
NANTUCKET      LGT RAIN  48  46  93 E15       30.05F FOG
MARTHAS VNYRD  CLOUDY    48  47  96 E8        30.05F
$$

MAZALL-020600-
CENTRAL AND WESTERN MASSACHUSETTS

CITY           SKY/WX    TMP DP  RH WIND       PRES   REMARKS
WORCESTER      FOG       38  38 100 NE3       30.07F VSB 1/4
FITCHBURG      CLOUDY    41  39  93 SE5       30.10F FOG
ORANGE         CLOUDY    40  38  93 CALM      30.09F FOG
SPRINGFIELD    CLOUDY    41  39  93 N5        30.08S
WESTFIELD      CLOUDY    41  39  93 NE5       30.09S FOG
NORTH ADAMS    CLOUDY    41  36  82 E6        30.06F
PITTSFIELD     CLOUDY    38  37  97 NE5       30.04F FOG
$$

RIZALL-020600-
RHODE ISLAND

CITY           SKY/WX    TMP DP  RH WIND       PRES   REMARKS
PROVIDENCE     CLOUDY    43  41  93 N6        30.09F FOG
NEWPORT        LGT RAIN  45  44  97 N5        30.08R FOG
SMITHFIELD       N/A     41  37  87 NE6       30.07F
WESTERLY       CLOUDY    45  42  89 N6        30.07F FOG
$$

CTZALL-020600-
CONNECTICUT

CITY           SKY/WX    TMP DP  RH WIND       PRES   REMARKS
BRADLEY INTL   DRIZZLE   41  40  96 N5        30.08F FOG
HARTFORD       LGT RAIN  44  41  89 N5        30.09F FOG
BRIDGEPORT     CLOUDY    44  42  93 NE6       30.08F FOG
DANBURY        CLOUDY    42  40  92 NE3       30.09R FOG
GROTON         CLOUDY    45  45 100 NE9       30.06F FOG
NEW HAVEN      CLOUDY    43  42  97 N5        30.08F FOG
CHESTER        CLOUDY    43  43 100 CALM      30.06F FOG
MERIDEN        CLOUDY    43  40  89 NW5       30.09S FOG
WILLIMANTIC    CLOUDY    44  40  85 NE5       30.08F FOG
OXFORD           N/A     39  37  93 NE5       30.09S
$$

MEZ002-015-021-024-NHZ003-005-008-011-012-014-VTZ005-008-020600-
NORTHERN NEW ENGLAND

CITY           SKY/WX    TMP DP  RH WIND       PRES   REMARKS
PORTLAND ME    LGT RAIN  44  39  82 SE5       30.15F
BANGOR ME      CLOUDY    45  34  65 CALM      30.18S
CONCORD NH     CLOUDY    41  38  89 VRB3      30.12F
MANCHESTER NH  LGT RAIN  43  39  86 SE6       30.09F
NASHUA NH      CLOUDY    42  38  85 CALM      30.11F
PORTSMOUTH NH  DRIZZLE   44  41  92 E7        30.11F
JAFFREY NH     LGT RAIN  39  37  92 CALM      30.08F FOG
KEENE NH       CLOUDY    43  36  75 CALM      30.10S
BURLINGTON VT  LGT RAIN  45  42  89 SE3       30.05F
MT. WASHINGTON FOG       23  23 100 S22G28      N/A  VSB 0   WCI   8
$$

NYZ052-076-020600-
EASTERN NEW YORK

CITY           SKY/WX    TMP DP  RH WIND       PRES   REMARKS
ALBANY         CLOUDY    44  38  79 S5        30.05S
NEW YORK CITY  CLOUDY    46  43  89 NE6       30.07F FOG
$$

ANZALL-020600-
MARINE OBSERVATIONS

STATION/POSITION TIME  TEMP    WIND        PRES    VSBY  WAVE
                       AIR SEA DIR/SP/G                  HT/PER
                 (UTC) (F)     (DEG/KT/KT) (MB)    (MI)  (FT/S)
BOSTON BUOY      0450   45 47   90/  8/ 10 1019.1F         3/10
BUZZARDS BAY     0400   46      70/ 11/ 12 1019.0F
NANTUCKET SOUND  0450   48 49  100/ 16/ 17 1017.8F         2/ 3
MASS BAY-STELLWA 0404   44 46                N/A    1 1/4  5/ 9
ISLE OF SHOALS   0400   45     150/ 10/ 12 1020.2F
S OF BLOCK IS    NOT AVBL
$$

......................KEY.........................
  SKY/WX - SKY CONDITION/PRESENT WEATHER
  TMP    - TEMPERATURE IN FAHRENHEIT
  DWPT   - DEWPOINT IN FAHRENHEIT
  RH     - RELATIVE HUMIDITY IN PERCENT
  WIND   - DIRECTION AND SPEED IN MPH
  PRES   - MEAN SEA LEVEL PRESSURE IN INCHES OF HG
  WCI    - WIND CHILL INDEX
  VSB    - VISIBILITY IN MILES
  HX     - HEAT INDEX
  TC     - TEMPERATURE IN CELSIUS
  VRB    - VARIABLE WIND DIRECTION
  N/A    - NOT AVAILABLE




USA.gov is the U.S. government's official web portal to all federal, state and local government web resources and services.